Location: Hains Lake
(37.8540°N, 99.8578°W)
Time: 13:32:28
(UTC+00:00)

Transit 2A - Pass Details

Date: 22 April 2021
Orbit: 602 x 957 km, 66.7° (Epoch: 13 May)

Event Time Altitude Azimuth Distance (km) Brightness Sun altitude
Rises 11:37:37 0° 166° (SSE) 3,146 9.1 -4.0°
Reaches altitude 10° 11:40:54 10° 145° (SE) 2,156 8.6 -3.4°
Maximum altitude 11:43:47 16° 108° (ESE) 1,739 8.8 -2.8°
Drops below altitude 10° 11:46:33 10° 71° (ENE) 2,054 10.4 -2.3°
Sets 11:49:33 0° 49° (NE) 2,920 10.5 -1.7°
